Tracking 25689 objects as of 7-Jul-2022
HD Live streaming from Space Station
objects crossing your sky now

STARLINK-3690

Track STARLINK-3690 now!
10-day predictions
STARLINK-3690 is classified as:


NORAD ID: 51964
Int'l Code: 2022-025J
Perigee: 545.6 km
Apogee: 548.1 km
Inclination: 53.2 °
Period: 95.4 minutes
Semi major axis: 6917 km
RCS: Unknown
Launch date: March 9, 2022
Source: United States (US)
Launch site: AIR FORCE EASTERN TEST RANGE (AFETR)
aabbcc
Your satellite tracking list
Your tracking list is empty




NASA's NSSDC Master Catalog

Two Line Element Set (TLE):
1 51964U 22025J   22187.91667824 -.00024906  00000-0 -15512-2 0  9998
2 51964  53.2155 292.5591 0001801  40.0735 122.4511 15.08862341  1308
Source of the keplerian elements: AFSPC